Location: Arboucave
(43.6130°N, 0.4343°W)
Time: 08:27:05
(UTC+00:00)

Cosmos 304 Rocket - Pass Details

Date: 17 November 2025
Orbit: 668 x 677 km, 74.0° (Epoch: 13 December)

Event Time Altitude Azimuth Distance (km) Brightness Sun altitude
Rises 18:05:10 0° 184° (S) 2,998 7.3 -16.3°
Reaches altitude 10° 18:07:30 10° 178° (S) 2,090 6.4 -16.7°
Maximum altitude 18:12:00 48° 105° (ESE) 875 3.9 -17.6°
Enters shadow 18:14:00 30° 48° (NE) 1,213 4.6 -17.9°
